Precipitable_Water
1.12 1.20 1.13 1.14 1.10 1.16 1.16 1.18 1.16 1.21 1.26 1.28 1.35 1.39 1.37 1.33 1.33 1.36 1.36 1.33 1.30 1.22 1.11 0.92 0.76 0.69 0.65 0.68 0.73 0.78 0.81 0.88 0.97 1.07 1.04 0.95 0.93 0.91 0.94 0.99 1.08 1.08 1.14
1.22 1.23 1.15 1.16 1.18 1.21 1.17 1.18 1.17 1.14 1.14 1.13 1.26 1.31 1.31 1.21 1.21 1.24 1.24 1.19 1.12 1.05 0.90 0.72 0.66 0.64 0.62 0.65 0.72 0.74 0.76 0.79 0.82 0.83 0.80 0.76 0.89 0.98 0.97 0.94 0.99 1.01 1.05
1.26 1.27 1.18 1.21 1.26 1.27 1.19 1.14 1.14 1.10 1.04 1.02 1.03 1.08 1.13 1.08 1.03 1.07 1.09 1.05 0.99 0.88 0.71 0.66 0.62 0.60 0.59 0.61 0.71 0.74 0.76 0.74 0.72 0.78 1.01 1.15 1.16 1.07 1.07 1.07 1.09 1.04 1.01
1.31 1.33 1.25 1.27 1.35 1.37 1.24 1.15 1.13 1.10 1.04 0.91 0.88 0.89 0.89 0.91 0.90 0.95 0.96 0.93 0.81 0.71 0.67 0.63 0.62 0.63 0.60 0.61 0.75 0.81 0.77 0.72 0.69 1.00 1.24 1.27 1.26 1.25 1.18 1.19 1.12 1.06 1.00
1.33 1.45 1.35 1.32 1.45 1.42 1.26 1.11 1.11 1.06 0.95 0.83 0.82 0.82 0.80 0.81 0.80 0.81 0.79 0.76 0.71 0.68 0.64 0.61 0.64 0.68 0.73 0.79 0.87 0.81 0.78 0.83 1.05 1.21 1.24 1.22 1.18 1.12 1.09 1.05 1.00 0.96 0.92
1.37 1.48 1.53 1.40 1.50 1.43 1.28 1.08 1.01 0.93 0.85 0.82 0.78 0.78 0.78 0.78 0.77 0.75 0.73 0.69 0.66 0.63 0.60 0.65 0.64 0.75 0.81 0.87 0.85 0.84 0.87 0.91 1.03 1.08 1.09 1.09 1.07 1.04 0.98 0.95 0.87 0.84 0.91
1.41 1.49 1.58 1.56 1.54 1.42 1.29 1.11 0.94 0.86 0.84 0.81 0.78 0.77 0.80 0.80 0.76 0.73 0.67 0.63 0.59 0.58 0.60 0.66 0.75 0.78 0.83 0.83 0.83 0.83 0.84 0.88 0.95 0.94 0.94 0.90 0.91 0.87 0.85 0.77 0.77 0.82 0.84
1.46 1.56 1.68 1.70 1.59 1.47 1.36 1.20 1.02 0.87 0.85 0.81 0.79 0.81 0.80 0.78 0.74 0.68 0.63 0.59 0.57 0.57 0.64 0.69 0.77 0.84 0.81 0.77 0.74 0.72 0.75 0.76 0.86 0.86 0.82 0.80 0.83 0.85 0.80 0.78 0.89 0.97 0.92
1.59 1.59 1.69 1.72 1.69 1.56 1.45 1.31 1.11 0.95 0.84 0.83 0.84 0.82 0.83 0.76 0.70 0.65 0.61 0.57 0.56 0.60 0.68 0.72 0.78 0.81 0.76 0.73 0.70 0.67 0.67 0.74 0.76 0.79 0.75 0.99 1.09 0.96 0.93 0.93 0.87 0.92 0.92
1.62 1.57 1.65 1.74 1.73 1.61 1.53 1.39 1.22 1.03 0.87 0.84 0.86 0.85 0.79 0.71 0.66 0.62 0.58 0.58 0.59 0.66 0.66 0.72 0.77 0.74 0.71 0.67 0.63 0.60 0.65 0.76 0.80 0.81 0.86 0.90 0.94 1.04 1.09 1.05 1.02 0.93 0.89
1.54 1.64 1.67 1.74 1.69 1.62 1.58 1.47 1.32 1.11 0.92 0.88 0.85 0.83 0.74 0.69 0.65 0.59 0.63 0.60 0.64 0.64 0.67 0.73 0.77 0.71 0.63 0.60 0.59 0.60 0.73 0.76 0.78 0.79 0.81 0.81 0.83 0.88 0.90 0.90 0.86 0.83 0.82
1.31 1.52 1.68 1.73 1.70 1.62 1.59 1.54 1.38 1.19 0.98 0.90 0.86 0.78 0.69 0.70 0.67 0.66 0.62 0.59 0.62 0.63 0.72 0.78 0.74 0.63 0.57 0.55 0.56 0.66 0.68 0.71 0.78 0.81 0.78 0.81 0.80 0.75 0.79 0.79 0.75 0.74 0.74
0.95 1.48 1.66 1.71 1.79 1.68 1.60 1.54 1.43 1.27 1.06 0.92 0.86 0.75 0.71 0.72 0.67 0.66 0.60 0.60 0.62 0.62 0.68 0.75 0.66 0.65 0.59 0.56 0.61 0.66 0.71 0.79 0.83 0.82 0.83 0.80 0.81 0.83 0.79 0.77 0.76 0.76 0.73
0.67 1.08 1.57 1.74 1.72 1.71 1.65 1.59 1.46 1.32 1.13 0.95 0.86 0.75 0.69 0.67 0.66 0.66 0.60 0.61 0.57 0.56 0.51 0.55 0.56 0.58 0.61 0.62 0.63 0.66 0.72 0.79 0.84 0.84 0.85 0.88 0.88 0.85 0.85 0.80 0.76 0.73 0.73
0.48 0.78 1.33 1.67 1.65 1.69 1.69 1.63 1.50 1.38 1.22 1.06 0.86 0.73 0.66 0.62 0.62 0.62 0.62 0.61 0.54 0.50 0.48 0.47 0.47 0.55 0.60 0.62 0.63 0.65 0.71 0.79 0.83 0.84 0.85 0.86 0.88 0.84 0.79 0.77 0.78 0.77 0.73
0.43 0.58 0.86 1.36 1.64 1.75 1.66 1.63 1.53 1.51 1.30 1.14 0.86 0.70 0.63 0.60 0.57 0.53 0.53 0.50 0.48 0.49 0.50 0.49 0.48 0.51 0.59 0.62 0.63 0.66 0.71 0.77 0.82 0.83 0.82 0.82 0.80 0.77 0.73 0.72 0.73 0.72 0.70
0.41 0.50 0.66 1.04 1.43 1.58 1.64 1.66 1.64 1.56 1.41 1.19 0.90 0.67 0.58 0.54 0.52 0.51 0.49 0.49 0.49 0.50 0.51 0.51 0.51 0.52 0.57 0.62 0.63 0.67 0.70 0.75 0.80 0.81 0.75 0.73 0.73 0.67 0.64 0.66 0.67 0.66 0.62
0.38 0.43 0.56 0.87 1.06 1.43 1.60 1.71 1.64 1.54 1.51 1.27 0.93 0.64 0.52 0.51 0.51 0.51 0.51 0.51 0.52 0.52 0.53 0.52 0.52 0.52 0.54 0.59 0.62 0.67 0.71 0.73 0.73 0.73 0.73 0.69 0.65 0.58 0.57 0.59 0.57 0.57 0.56
0.37 0.40 0.50 0.77 0.86 1.14 1.47 1.64 1.60 1.66 1.45 1.34 0.94 0.65 0.51 0.50 0.51 0.51 0.51 0.53 0.54 0.52 0.52 0.52 0.54 0.54 0.52 0.55 0.62 0.67 0.70 0.71 0.71 0.67 0.60 0.59 0.58 0.56 0.53 0.51 0.51 0.50 0.50
0.38 0.40 0.48 0.71 0.85 1.01 1.28 1.47 1.60 1.52 1.49 1.30 0.96 0.72 0.56 0.51 0.52 0.53 0.54 0.53 0.54 0.52 0.52 0.52 0.53 0.56 0.55 0.56 0.62 0.66 0.70 0.71 0.69 0.59 0.57 0.57 0.55 0.53 0.53 0.53 0.54 0.53 0.50
0.40 0.40 0.45 0.60 0.80 0.92 1.01 1.23 1.31 1.33 1.26 1.18 0.92 0.81 0.62 0.56 0.54 0.55 0.55 0.55 0.55 0.53 0.51 0.52 0.53 0.52 0.54 0.59 0.57 0.59 0.65 0.68 0.66 0.59 0.59 0.55 0.53 0.53 0.53 0.55 0.54 0.52 0.48
0.43 0.42 0.43 0.59 0.78 0.84 0.89 1.11 1.22 1.27 1.21 1.23 1.10 0.87 0.69 0.60 0.58 0.57 0.55 0.56 0.57 0.55 0.53 0.51 0.52 0.51 0.53 0.57 0.51 0.51 0.47 0.55 0.61 0.60 0.58 0.54 0.53 0.56 0.57 0.56 0.53 0.50 0.46
0.58 0.44 0.43 0.59 0.82 0.80 0.84 0.96 1.12 1.26 1.24 1.19 1.10 0.86 0.73 0.65 0.63 0.62 0.60 0.59 0.59 0.57 0.52 0.53 0.53 0.51 0.48 0.54 0.58 0.52 0.44 0.44 0.51 0.58 0.57 0.56 0.56 0.59 0.60 0.61 0.53 0.49 0.47
0.62 0.63 0.47 0.73 0.82 0.77 0.82 0.92 1.00 1.01 1.07 1.10 1.08 1.01 0.84 0.73 0.67 0.67 0.65 0.63 0.60 0.58 0.54 0.54 0.54 0.54 0.51 0.46 0.52 0.52 0.55 0.56 0.48 0.45 0.57 0.58 0.61 0.62 0.62 0.59 0.53 0.51 0.48
0.59 0.65 0.53 0.78 0.80 0.77 0.83 0.92 0.99 0.98 1.01 1.12 1.07 1.00 0.93 0.80 0.73 0.71 0.71 0.68 0.64 0.63 0.61 0.56 0.53 0.53 0.56 0.51 0.49 0.48 0.46 0.45 0.51 0.50 0.47 0.55 0.61 0.63 0.63 0.62 0.56 0.48 0.42
0.58 0.60 0.67 0.75 0.74 0.79 0.83 0.97 0.98 0.99 0.99 0.97 1.03 0.99 0.95 0.86 0.78 0.76 0.76 0.73 0.67 0.64 0.61 0.59 0.58 0.54 0.52 0.52 0.49 0.48 0.47 0.45 0.43 0.45 0.47 0.53 0.55 0.60 0.59 0.51 0.47 0.43 0.39
Wind_Speed
8 14 16 15 15 15 15 14 14 13 13 13 13 13 12 12 11 10 9 8 8 6 5 5 5 5 6 7 8 8 8 8 7 7 7 6 6 6 6 5 6 6 6
10 14 17 16 16 15 15 15 14 14 14 14 13 13 12 11 10 9 9 8 7 6 5 5 5 6 7 7 8 8 8 8 8 7 7 6 6 6 6 6 5 5 5
11 15 17 17 17 16 16 15 15 15 14 14 14 13 12 11 10 9 8 8 7 6 6 6 6 6 7 7 7 7 8 8 7 7 6 6 6 6 6 6 5 4 4
13 15 18 18 18 18 16 16 16 15 15 14 14 14 13 12 11 10 9 8 7 6 6 6 6 6 6 7 7 7 7 7 7 7 7 8 8 8 7 6 5 5 5
16 16 18 19 19 19 17 17 17 16 16 15 15 14 14 13 12 11 9 8 7 7 6 6 6 6 6 7 7 7 7 7 7 7 7 7 6 5 4 3 3 3 4
18 18 18 20 20 20 18 18 18 17 17 16 15 15 14 14 13 11 10 9 8 7 7 6 6 6 6 6 6 6 7 6 6 5 4 3 3 2 2 2 3 3 3
21 20 20 21 21 21 19 19 19 18 18 17 17 16 15 14 13 12 11 10 9 8 7 7 7 6 6 6 6 6 5 4 4 3 2 1 1 0 1 2 2 2 3
23 23 22 23 23 22 21 21 20 20 19 19 18 17 16 15 14 13 12 11 10 9 8 7 7 6 6 6 6 6 5 4 3 2 1 1 1 0 1 1 2 3 3
25 24 25 25 25 24 22 22 22 21 21 20 19 18 17 16 15 15 14 12 11 10 9 8 7 7 6 6 6 5 5 3 3 2 2 1 1 1 1 1 1 2 4
27 29 27 28 27 25 24 23 23 23 22 22 21 20 19 17 16 16 15 14 13 12 10 9 8 7 6 6 6 6 5 3 3 2 2 2 1 1 2 1 2 4 5
28 31 31 30 29 28 26 25 24 24 24 23 22 21 20 19 18 17 16 15 14 13 11 11 9 8 7 6 6 6 5 4 4 3 3 3 2 2 2 3 5 6 7
29 32 33 33 33 31 29 27 26 26 26 25 24 24 22 21 20 18 17 17 15 14 13 12 10 9 8 7 7 6 5 5 4 3 3 3 3 2 3 4 5 6 8
32 34 35 35 35 34 32 30 29 27 27 27 27 26 24 22 21 20 19 18 17 15 14 12 11 10 9 9 8 7 6 5 4 3 3 2 2 2 3 5 6 7 9
34 36 37 38 37 38 36 33 31 30 29 28 29 28 26 24 23 22 21 20 19 17 16 14 13 12 11 10 9 8 7 6 5 4 3 2 2 3 4 6 7 9 10
38 37 39 39 41 40 39 37 35 32 31 30 30 30 29 27 25 24 23 22 21 19 18 16 14 13 12 11 10 9 8 7 6 5 4 3 3 4 6 7 8 9 11
39 40 41 43 43 42 42 40 38 36 34 33 32 32 31 29 28 26 24 23 22 21 19 17 15 14 13 13 12 10 10 9 8 7 6 6 6 6 7 8 10 11 13
37 41 42 44 44 46 44 45 42 39 38 36 34 33 32 31 30 28 26 25 24 23 21 19 17 16 15 14 13 12 11 11 10 9 9 9 8 8 10 11 12 14 15
36 40 43 45 46 46 47 43 44 44 41 39 37 35 34 32 31 29 28 27 26 25 23 21 19 17 16 15 14 13 13 12 11 11 11 11 11 12 12 13 15 16 18
37 38 41 44 47 47 45 45 47 47 43 42 40 37 36 34 33 31 29 28 27 26 25 23 21 20 18 17 16 15 14 14 13 13 13 13 13 14 15 16 17 19 20
36 38 40 42 46 47 47 45 43 48 43 41 41 39 38 36 34 32 30 29 28 27 26 25 23 21 20 19 17 16 16 16 15 15 15 15 16 16 17 19 20 22 23
35 37 39 41 43 46 47 46 47 39 43 38 38 39 40 38 36 33 32 30 29 28 27 26 25 23 22 20 18 18 17 18 18 18 18 17 18 19 20 22 22 24 25
31 35 38 40 42 45 46 47 47 44 40 41 38 41 40 39 37 35 33 32 30 29 28 27 26 25 24 23 21 20 19 20 20 20 20 20 20 21 22 23 25 26 27
27 32 36 39 40 43 46 46 47 41 41 39 42 38 40 39 38 36 34 33 31 30 29 28 27 26 25 25 23 22 21 22 22 23 23 23 23 24 25 26 27 28 29
26 29 34 36 38 42 45 47 48 46 40 40 42 40 35 40 39 36 35 33 32 31 30 29 28 27 27 26 24 23 22 22 23 22 25 25 25 27 27 28 30 30 31
24 26 31 32 35 39 43 45 46 43 46 40 36 38 36 38 39 37 35 34 32 31 30 29 28 27 27 26 25 25 24 23 24 24 24 25 27 28 29 31 31 30 29
19 21 25 28 30 36 40 41 44 43 42 43 40 37 33 36 38 38 35 34 33 32 30 30 28 27 26 26 25 25 24 24 24 24 24 26 27 29 31 29 28 29 31
Wind_Direction
205 193 191 188 185 181 179 177 174 170 166 164 162 159 158 156 155 152 150 148 147 143 136 128 121 116 114 116 120 120 118 115 112 112 111 108 107 105 100 93 90 84 73
207 196 193 191 189 186 184 182 180 178 175 173 169 165 164 163 161 161 158 154 152 148 141 134 128 124 120 120 122 122 122 119 113 107 109 111 108 107 102 98 88 79 66
208 198 196 196 194 192 190 188 186 185 184 184 184 183 181 178 175 170 165 162 157 153 146 139 135 130 126 125 126 125 124 122 118 109 104 106 108 107 104 96 86 68 56
210 204 201 200 199 196 194 193 192 191 190 190 190 189 187 185 181 178 175 170 164 157 153 148 144 140 136 133 131 129 129 129 126 110 103 104 105 103 100 92 75 57 48
214 209 206 203 201 200 199 198 198 197 196 194 193 192 191 190 187 185 182 177 172 165 158 156 151 148 144 140 136 133 131 128 131 119 112 109 107 98 88 72 44 26 22
217 214 209 207 205 204 205 204 202 201 199 198 197 196 195 194 193 191 189 185 180 175 169 163 161 157 153 149 146 141 136 135 130 134 126 119 120 99 64 27 4 1 5
220 217 214 211 209 209 209 208 206 205 203 202 201 200 198 198 198 197 195 192 188 184 180 175 169 165 162 160 159 157 154 155 155 151 155 176 200 276 334 341 356 8 6
223 220 218 215 213 213 212 212 210 208 207 206 204 202 202 202 202 201 200 198 196 192 187 182 177 173 173 172 172 173 174 164 167 170 166 145 166 110 352 11 21 24 7
224 225 222 218 216 216 215 215 213 212 211 209 207 206 205 205 204 204 203 203 201 198 195 191 186 185 183 182 183 183 183 194 187 185 174 127 130 103 46 17 4 352 351
232 227 224 220 218 217 217 217 216 215 213 211 210 208 208 208 207 207 206 206 204 202 201 198 196 195 192 192 192 192 186 194 195 207 202 196 182 72 60 36 14 347 339
234 229 226 223 221 221 219 219 218 217 216 213 212 212 211 212 210 209 209 208 207 206 205 203 202 201 199 198 194 189 212 219 218 219 216 218 236 258 287 304 314 320 321
237 232 229 226 223 223 221 220 221 220 218 217 216 215 215 214 213 212 211 209 209 208 206 206 207 207 208 205 201 217 220 213 215 214 215 226 250 271 282 298 309 316 319
238 234 230 227 224 223 222 222 223 221 220 220 219 216 218 215 214 214 212 211 211 210 210 211 209 218 216 213 220 218 208 206 202 206 206 223 248 282 302 309 312 316 318
240 237 233 229 226 226 223 224 224 224 223 221 220 218 218 219 218 217 215 214 213 214 214 215 221 223 219 219 219 214 211 207 206 203 210 228 262 292 308 313 314 315 316
241 237 234 231 227 226 225 225 225 225 224 223 222 220 221 221 219 219 218 218 217 218 217 220 222 220 219 219 218 217 216 214 214 216 228 247 272 293 306 312 316 318 316
242 239 235 233 230 228 227 226 226 225 225 224 223 222 221 221 220 220 220 219 219 219 219 220 221 220 220 219 220 220 222 224 227 232 240 258 273 290 303 308 312 316 316
244 240 236 233 231 229 228 225 227 226 225 225 224 222 221 220 219 219 219 219 219 219 220 220 221 220 221 221 223 226 228 230 234 241 250 258 270 287 298 304 309 312 314
246 242 238 234 232 230 230 231 229 226 225 224 223 222 221 220 220 220 220 219 219 219 220 221 222 222 223 224 225 229 233 236 242 249 256 263 272 281 292 300 305 309 311
246 243 239 235 232 230 229 230 229 225 223 224 222 221 220 220 219 220 220 219 219 219 221 223 223 224 225 226 229 233 238 242 247 253 259 266 272 280 287 295 301 306 308
248 243 240 235 231 229 227 227 228 227 226 221 220 220 219 219 219 220 219 219 219 221 221 224 225 226 227 228 231 236 242 246 251 255 262 268 274 281 288 292 297 301 305
250 245 239 236 231 227 226 225 224 223 217 224 222 219 218 218 218 219 220 219 220 221 222 224 225 226 229 230 234 239 245 250 254 259 264 269 274 282 288 292 295 299 301
254 245 239 235 230 226 224 224 223 227 232 229 226 216 216 216 217 219 219 220 220 221 222 224 225 227 230 232 240 243 249 255 258 262 266 271 276 281 288 292 295 297 299
259 248 240 234 230 225 222 221 220 225 225 226 225 223 217 216 217 218 219 220 221 223 224 226 227 229 233 237 239 249 252 257 256 263 267 271 276 282 288 289 295 296 297
265 252 241 232 228 224 221 220 221 227 224 224 222 221 223 218 217 217 219 220 222 224 225 227 230 233 234 237 242 249 255 260 261 265 269 272 276 282 287 291 294 294 297
268 255 239 227 226 222 221 220 220 222 223 222 218 222 225 217 216 216 218 219 222 224 226 227 230 234 237 238 244 249 255 260 266 270 271 276 276 283 287 291 292 293 295
269 250 230 222 224 220 219 219 219 219 219 219 218 218 217 217 217 217 218 220 222 224 226 229 231 235 238 242 246 251 256 263 267 270 274 274 283 286 288 288 291 293 295